Time,TemperatureF,DewpointF,PressureIn,WindDirection,WindDirectionDegrees,WindSpeedMPH,WindSpeedGustMPH,Humidity,HourlyPrecipIn,Conditions,Clouds,dailyrainin,SolarRadiationWatts/m^2,SoftwareType,DateUTC
2013-01-23 09:25:00,14.0,-3.0,29.80,ENE,68,10.0,11.0,46,0.00,,,0.00,0344,Weather View 32 v70,2013-01-23 14:25:00,
2013-01-23 09:30:00,13.3,-4.1,29.81,NE,34,6.0,15.0,45,0.00,,,0.00,0360,Weather View 32 v70,2013-01-23 14:30:00,
2013-01-23 09:35:00,14.4,-2.1,29.81,NE,45,4.0,17.0,47,0.00,,,0.00,0368,Weather View 32 v70,2013-01-23 14:35:00,
2013-01-23 09:40:00,14.5,-2.9,29.81,NE,45,2.0,17.0,45,0.00,,,0.00,0384,Weather View 32 v70,2013-01-23 14:40:00,
2013-01-23 09:45:00,14.3,-2.7,29.80,ESE,118,9.0,17.0,46,0.00,,,0.00,0392,Weather View 32 v70,2013-01-23 14:45:00,
2013-01-23 09:50:00,15.3,-2.7,29.81,ESE,107,7.0,17.0,44,0.00,,,0.00,0408,Weather View 32 v70,2013-01-23 14:50:00,
2013-01-23 09:55:00,15.4,-2.6,29.81,ESE,113,2.0,17.0,44,0.00,,,0.00,0424,Weather View 32 v70,2013-01-23 14:55:00,
2013-01-23 10:00:00,15.3,-4.2,29.80,ESE,113,3.0,17.0,41,0.00,,,0.00,0432,Weather View 32 v70,2013-01-23 15:00:00,
2013-01-23 10:05:00,15.0,-4.5,29.80,NE,39,8.0,17.0,41,0.00,,,0.00,0440,Weather View 32 v70,2013-01-23 15:05:00,
2013-01-23 10:10:00,14.3,-5.1,29.80,ENE,73,10.0,17.0,41,0.00,,,0.00,0480,Weather View 32 v70,2013-01-23 15:10:00,
2013-01-23 10:15:00,15.9,-4.2,29.80,NE,34,4.0,17.0,40,0.00,,,0.00,0480,Weather View 32 v70,2013-01-23 15:15:00,
2013-01-23 10:20:00,15.0,-5.0,29.80,ENE,62,8.0,17.0,40,0.00,,,0.00,0496,Weather View 32 v70,2013-01-23 15:20:00,
2013-01-23 10:25:00,13.6,-5.7,29.80,East,79,11.0,17.0,41,0.00,,,0.00,0072,Weather View 32 v70,2013-01-23 15:25:00,
2013-01-23 10:30:00,14.9,-5.1,29.80,NE,34,12.0,18.0,40,0.00,,,0.00,0496,Weather View 32 v70,2013-01-23 15:30:00,
2013-01-23 10:35:00,15.0,-5.0,29.79,NNE,23,3.0,18.0,40,0.00,,,0.00,0504,Weather View 32 v70,2013-01-23 15:35:00,
2013-01-23 10:40:00,15.3,-6.9,29.80,NE,51,6.0,18.0,36,0.00,,,0.00,0528,Weather View 32 v70,2013-01-23 15:40:00,
2013-01-23 10:45:00,15.6,-6.7,29.79,SE,141,7.0,18.0,36,0.00,,,0.00,0536,Weather View 32 v70,2013-01-23 15:45:00,
2013-01-23 10:50:00,15.9,-6.4,29.79,East,84,10.0,18.0,36,0.00,,,0.00,0536,Weather View 32 v70,2013-01-23 15:50:00,
2013-01-23 10:55:00,16.9,-5.4,29.79,NNE,23,6.0,18.0,36,0.00,,,0.00,0536,Weather View 32 v70,2013-01-23 15:55:00,
2013-01-23 11:00:00,17.0,-6.5,29.78,NE,56,10.0,18.0,34,0.00,,,0.00,0544,Weather View 32 v70,2013-01-23 16:00:00,
2013-01-23 11:05:00,16.9,-5.4,29.77,ENE,62,11.0,20.0,36,0.00,,,0.00,0552,Weather View 32 v70,2013-01-23 16:05:00,
2013-01-23 11:10:00,16.8,-5.6,29.78,East,84,11.0,20.0,36,0.00,,,0.00,0528,Weather View 32 v70,2013-01-23 16:10:00,
2013-01-23 11:15:00,15.4,-7.9,29.76,NNE,28,9.0,20.0,34,0.00,,,0.00,0072,Weather View 32 v70,2013-01-23 16:15:00,
2013-01-23 11:20:00,16.7,-6.8,29.77,NE,39,10.0,20.0,34,0.00,,,0.00,0536,Weather View 32 v70,2013-01-23 16:20:00,
2013-01-23 11:25:00,16.8,-6.7,29.76,NNE,28,6.0,20.0,34,0.00,,,0.00,0528,Weather View 32 v70,2013-01-23 16:25:00,
2013-01-23 11:30:00,16.1,-6.7,29.76,SSE,152,15.0,20.0,35,0.00,,,0.00,0536,Weather View 32 v70,2013-01-23 16:30:00,
2013-01-23 11:35:00,15.8,-7.6,29.76,ENE,62,11.0,20.0,34,0.00,,,0.00,0544,Weather View 32 v70,2013-01-23 16:35:00,
2013-01-23 11:40:00,18.3,-5.4,29.76,ENE,62,8.0,20.0,34,0.00,,,0.00,0544,Weather View 32 v70,2013-01-23 16:40:00,
2013-01-23 11:45:00,16.7,-6.8,29.75,ENE,68,8.0,20.0,34,0.00,,,0.00,0560,Weather View 32 v70,2013-01-23 16:45:00,
2013-01-23 11:50:00,15.8,-8.9,29.74,ENE,62,11.0,23.0,32,0.00,,,0.00,0424,Weather View 32 v70,2013-01-23 16:50:00,
2013-01-23 11:55:00,16.1,-7.9,29.75,NE,56,10.0,23.0,33,0.00,,,0.00,0080,Weather View 32 v70,2013-01-23 16:55:00,
2013-01-23 12:00:00,17.2,-6.3,29.74,NE,39,12.0,23.0,34,0.00,,,0.00,0568,Weather View 32 v70,2013-01-23 17:00:00,
2013-01-23 12:05:00,17.9,-5.7,29.74,NE,45,13.0,23.0,34,0.00,,,0.00,0568,Weather View 32 v70,2013-01-23 17:05:00,
2013-01-23 12:10:00,16.8,-6.7,29.74,NNE,23,4.0,23.0,34,0.00,,,0.00,0584,Weather View 32 v70,2013-01-23 17:10:00,
2013-01-23 12:15:00,16.7,-6.2,29.74,NE,39,7.0,23.0,35,0.00,,,0.00,0608,Weather View 32 v70,2013-01-23 17:15:00,
2013-01-23 12:20:00,14.5,-8.1,29.74,NE,39,7.0,23.0,35,0.00,,,0.00,0160,Weather View 32 v70,2013-01-23 17:20:00,
2013-01-23 12:25:00,16.5,-5.8,29.75,NE,39,14.0,23.0,36,0.00,,,0.00,0328,Weather View 32 v70,2013-01-23 17:25:00,
2013-01-23 12:30:00,15.7,-6.6,29.74,ENE,73,13.0,23.0,36,0.00,,,0.00,0584,Weather View 32 v70,2013-01-23 17:30:00,
2013-01-23 12:35:00,17.1,-5.8,29.74,ENE,73,9.0,23.0,35,0.00,,,0.00,0632,Weather View 32 v70,2013-01-23 17:35:00,
2013-01-23 12:40:00,18.9,-4.8,29.73,NE,51,9.0,23.0,34,0.00,,,0.00,0560,Weather View 32 v70,2013-01-23 17:40:00,
2013-01-23 12:45:00,17.0,-5.9,29.72,NNE,28,6.0,23.0,35,0.00,,,0.00,0544,Weather View 32 v70,2013-01-23 17:45:00,
2013-01-23 12:50:00,18.0,-3.3,29.73,NNE,28,5.0,22.0,38,0.00,,,0.00,0552,Weather View 32 v70,2013-01-23 17:50:00,
2013-01-23 12:55:00,15.8,-5.9,29.72,NNE,28,5.0,22.0,37,0.00,,,0.00,0240,Weather View 32 v70,2013-01-23 17:55:00,
2013-01-23 13:00:00,15.8,-5.3,29.73,ESE,107,14.0,22.0,38,0.00,,,0.00,0168,Weather View 32 v70,2013-01-23 18:00:00,
2013-01-23 13:05:00,16.6,-5.2,29.73,NNE,28,11.0,22.0,37,0.00,,,0.00,0584,Weather View 32 v70,2013-01-23 18:05:00,
2013-01-23 13:10:00,17.5,-5.0,29.72,NNE,17,3.0,22.0,36,0.00,,,0.00,0352,Weather View 32 v70,2013-01-23 18:10:00,
2013-01-23 13:15:00,16.0,-6.3,29.72,NE,56,11.0,22.0,36,0.00,,,0.00,0312,Weather View 32 v70,2013-01-23 18:15:00,
2013-01-23 13:20:00,17.2,-5.7,29.72,NE,34,9.0,22.0,35,0.00,,,0.00,0432,Weather View 32 v70,2013-01-23 18:20:00,
2013-01-23 13:25:00,17.1,-7.0,29.72,ENE,62,9.0,22.0,33,0.00,,,0.00,0328,Weather View 32 v70,2013-01-23 18:25:00,
2013-01-23 13:30:00,20.5,-4.0,29.72,NNE,28,5.0,22.0,33,0.00,,,0.00,0528,Weather View 32 v70,2013-01-23 18:30:00,
2013-01-23 13:35:00,19.0,-6.0,29.72,NNE,28,5.0,22.0,32,0.00,,,0.00,0536,Weather View 32 v70,2013-01-23 18:35:00,
2013-01-23 13:40:00,18.8,-6.2,29.71,NNE,23,6.0,22.0,32,0.00,,,0.00,0568,Weather View 32 v70,2013-01-23 18:40:00,
2013-01-23 13:45:00,20.3,-4.9,29.71,NNE,17,6.0,21.0,32,0.00,,,0.00,0544,Weather View 32 v70,2013-01-23 18:45:00,
2013-01-23 13:50:00,19.4,-3.8,29.70,NW,326,9.0,21.0,35,0.00,,,0.00,0480,Weather View 32 v70,2013-01-23 18:50:00,
2013-01-23 13:56:00,18.8,-6.2,29.70,North,349,4.0,20.0,32,0.00,,,0.00,0536,Weather View 32 v70,2013-01-23 18:56:00,
2013-01-23 14:01:00,20.1,0.6,29.70,NE,34,7.0,20.0,42,0.00,,,0.00,0480,Weather View 32 v70,2013-01-23 19:01:00,
2013-01-23 14:06:00,18.0,-7.5,29.70,East,84,11.0,20.0,31,0.00,,,0.00,0280,Weather View 32 v70,2013-01-23 19:06:00,
2013-01-23 14:11:00,19.5,-5.6,29.70,NNE,23,3.0,20.0,32,0.00,,,0.00,0416,Weather View 32 v70,2013-01-23 19:11:00,
2013-01-23 14:16:00,19.5,-5.6,29.70,North,6,5.0,20.0,32,0.00,,,0.00,0440,Weather View 32 v70,2013-01-23 19:16:00,
2013-01-23 14:21:00,20.2,-6.3,29.71,NE,39,6.0,19.0,30,0.00,,,0.00,0464,Weather View 32 v70,2013-01-23 19:21:00,
2013-01-23 14:26:00,19.7,-2.4,29.69,NE,39,5.0,19.0,37,0.00,,,0.00,0456,Weather View 32 v70,2013-01-23 19:26:00,
2013-01-23 14:31:00,18.6,-8.4,29.69,NE,45,6.0,19.0,29,0.00,,,0.00,0456,Weather View 32 v70,2013-01-23 19:31:00,
2013-01-23 14:36:00,20.1,-7.1,29.70,NE,45,14.0,19.0,29,0.00,,,0.00,0448,Weather View 32 v70,2013-01-23 19:36:00,
2013-01-23 14:41:00,19.4,-7.0,29.70,NE,45,10.0,19.0,30,0.00,,,0.00,0432,Weather View 32 v70,2013-01-23 19:41:00,
2013-01-23 14:46:00,20.2,-7.0,29.70,North,349,4.0,19.0,29,0.00,,,0.00,0384,Weather View 32 v70,2013-01-23 19:46:00,
2013-01-23 14:51:00,17.8,-8.4,29.70,ESE,107,16.0,25.0,30,0.00,,,0.00,0224,Weather View 32 v70,2013-01-23 19:51:00,
2013-01-23 14:56:00,18.0,-6.9,29.70,ENE,73,12.0,25.0,32,0.00,,,0.00,0312,Weather View 32 v70,2013-01-23 19:56:00,
2013-01-23 15:01:00,17.6,-6.0,29.71,NE,39,5.0,25.0,34,0.00,,,0.00,0256,Weather View 32 v70,2013-01-23 20:01:00,
2013-01-23 15:06:00,19.2,-5.2,29.71,North,6,6.0,25.0,33,0.00,,,0.00,0216,Weather View 32 v70,2013-01-23 20:06:00,
2013-01-23 15:11:00,17.7,-5.9,29.71,NE,39,5.0,25.0,34,0.00,,,0.00,0256,Weather View 32 v70,2013-01-23 20:11:00,
2013-01-23 15:16:00,18.0,-5.0,29.72,NE,39,8.0,25.0,35,0.00,,,0.00,0264,Weather View 32 v70,2013-01-23 20:16:00,
2013-01-23 15:21:00,18.3,3.6,29.71,NE,39,6.0,25.0,52,0.00,,,0.00,0272,Weather View 32 v70,2013-01-23 20:21:00,
2013-01-23 15:26:00,17.9,-5.7,29.72,NNE,28,4.0,25.0,34,0.00,,,0.00,0128,Weather View 32 v70,2013-01-23 20:26:00,
2013-01-23 15:31:00,17.1,-5.8,29.72,ENE,62,11.0,25.0,35,0.00,,,0.00,0224,Weather View 32 v70,2013-01-23 20:31:00,
2013-01-23 15:36:00,17.4,-6.2,29.72,NE,39,4.0,25.0,34,0.00,,,0.00,0200,Weather View 32 v70,2013-01-23 20:36:00,
2013-01-23 15:41:00,17.2,-6.3,29.72,NE,34,7.0,25.0,34,0.00,,,0.00,0080,Weather View 32 v70,2013-01-23 20:41:00,
2013-01-23 15:46:00,17.0,-5.9,29.72,NNE,28,7.0,25.0,35,0.00,,,0.00,0128,Weather View 32 v70,2013-01-23 20:46:00,
2013-01-23 15:51:00,17.0,-6.5,29.73,NNE,28,3.0,20.0,34,0.00,,,0.00,0072,Weather View 32 v70,2013-01-23 20:51:00,
2013-01-23 15:56:00,16.9,-5.4,29.73,NE,51,10.0,19.0,36,0.00,,,0.00,0056,Weather View 32 v70,2013-01-23 20:56:00,
2013-01-23 16:01:00,16.8,-6.7,29.73,NE,39,6.0,17.0,34,0.00,,,0.00,0080,Weather View 32 v70,2013-01-23 21:01:00,
2013-01-23 16:06:00,17.2,-5.2,29.73,NE,45,8.0,18.0,36,0.00,,,0.00,0136,Weather View 32 v70,2013-01-23 21:06:00,
2013-01-23 16:11:00,17.0,-6.5,29.73,ENE,73,15.0,20.0,34,0.00,,,0.00,0160,Weather View 32 v70,2013-01-23 21:11:00,
2013-01-23 16:16:00,17.1,-5.2,29.73,NE,51,11.0,20.0,36,0.00,,,0.00,0120,Weather View 32 v70,2013-01-23 21:16:00,
2013-01-23 16:21:00,17.2,-6.3,29.73,NE,56,10.0,20.0,34,0.00,,,0.00,0104,Weather View 32 v70,2013-01-23 21:21:00,
2013-01-23 16:27:00,16.6,-6.9,29.73,ENE,62,13.0,20.0,34,0.00,,,0.00,0040,Weather View 32 v70,2013-01-23 21:27:00,
2013-01-23 16:32:00,16.6,-6.9,29.73,NNE,28,8.0,20.0,34,0.00,,,0.00,0032,Weather View 32 v70,2013-01-23 21:32:00,
2013-01-23 16:37:00,16.2,-6.1,29.74,NE,45,8.0,20.0,36,0.00,,,0.00,0024,Weather View 32 v70,2013-01-23 21:37:00,
2013-01-23 16:42:00,16.2,-6.1,29.75,NNE,23,7.0,20.0,36,0.00,,,0.00,0016,Weather View 32 v70,2013-01-23 21:42:00,
2013-01-23 16:47:00,16.1,-5.6,29.75,NE,39,2.0,20.0,37,0.00,,,0.00,0008,Weather View 32 v70,2013-01-23 21:47:00,
2013-01-23 16:52:00,15.8,-5.3,29.75,NE,39,11.0,20.0,38,0.00,,,0.00,0000,Weather View 32 v70,2013-01-23 21:52:00,
2013-01-23 16:57:00,15.6,-5.5,29.75,NE,56,8.0,20.0,38,0.00,,,0.00,0000,Weather View 32 v70,2013-01-23 21:57:00,
2013-01-23 17:02:00,15.4,-4.6,29.75,NE,39,6.0,20.0,40,0.00,,,0.00,0000,Weather View 32 v70,2013-01-23 22:02:00,
2013-01-23 17:07:00,15.6,-4.5,29.75,NE,39,5.0,20.0,40,0.00,,,0.00,0000,Weather View 32 v70,2013-01-23 22:07:00,
2013-01-23 17:12:00,15.7,-0.1,29.76,NE,39,2.0,19.0,49,0.00,,,0.00,0000,Weather View 32 v70,2013-01-23 22:12:00,
2013-01-23 17:17:00,15.2,-3.8,29.76,NE,39,10.0,19.0,42,0.00,,,0.00,0000,Weather View 32 v70,2013-01-23 22:17:00,
2013-01-23 17:22:00,15.6,0.2,29.77,NNE,23,6.0,19.0,50,0.00,,,0.00,0000,Weather View 32 v70,2013-01-23 22:22:00,
2013-01-23 17:27:00,15.1,-3.9,29.76,NE,39,3.0,19.0,42,0.00,,,0.00,0000,Weather View 32 v70,2013-01-23 22:27:00,
2013-01-23 17:32:00,15.2,0.3,29.77,NE,39,6.0,19.0,51,0.00,,,0.00,0000,Weather View 32 v70,2013-01-23 22:32:00,
2013-01-23 17:37:00,15.2,-2.8,29.77,NE,39,2.0,19.0,44,0.00,,,0.00,0000,Weather View 32 v70,2013-01-23 22:37:00,
2013-01-23 17:42:00,15.0,-2.5,29.78,NE,39,4.0,19.0,45,0.00,,,0.00,0000,Weather View 32 v70,2013-01-23 22:42:00,
2013-01-23 17:47:00,14.9,-3.1,29.78,NE,39,7.0,19.0,44,0.00,,,0.00,0000,Weather View 32 v70,2013-01-23 22:47:00,
2013-01-23 17:52:00,15.0,-3.0,29.78,NE,39,2.0,19.0,44,0.00,,,0.00,0000,Weather View 32 v70,2013-01-23 22:52:00,
2013-01-23 17:57:00,14.9,-2.6,29.78,NE,39,4.0,15.0,45,0.00,,,0.00,0000,Weather View 32 v70,2013-01-23 22:57:00,
2013-01-23 18:02:00,14.8,-3.2,29.78,NE,39,5.0,15.0,44,0.00,,,0.00,0000,Weather View 32 v70,2013-01-23 23:02:00,
2013-01-23 18:07:00,15.0,2.1,29.78,NE,39,2.0,15.0,56,0.00,,,0.00,0000,Weather View 32 v70,2013-01-23 23:07:00,
2013-01-23 18:12:00,14.7,-3.8,29.79,NE,39,4.0,15.0,43,0.00,,,0.00,0000,Weather View 32 v70,2013-01-23 23:12:00,
2013-01-23 18:17:00,15.0,-2.1,29.79,NE,45,7.0,15.0,46,0.00,,,0.00,0000,Weather View 32 v70,2013-01-23 23:17:00,
2013-01-23 18:22:00,14.7,-3.8,29.78,NE,34,4.0,12.0,43,0.00,,,0.00,0000,Weather View 32 v70,2013-01-23 23:22:00,
2013-01-23 18:27:00,14.7,-2.4,29.79,NE,39,6.0,11.0,46,0.00,,,0.00,0000,Weather View 32 v70,2013-01-23 23:27:00,
2013-01-23 18:32:00,14.5,-2.9,29.79,NE,45,7.0,11.0,45,0.00,,,0.00,0000,Weather View 32 v70,2013-01-23 23:32:00,
2013-01-23 18:37:00,14.5,-2.0,29.79,NE,34,7.0,11.0,47,0.00,,,0.00,0000,Weather View 32 v70,2013-01-23 23:37:00,
2013-01-23 18:42:00,14.3,-1.4,29.79,NE,39,3.0,12.0,49,0.00,,,0.00,0000,Weather View 32 v70,2013-01-23 23:42:00,
2013-01-23 18:47:00,14.3,-1.4,29.79,NE,39,3.0,12.0,49,0.00,,,0.00,0000,Weather View 32 v70,2013-01-23 23:47:00,
2013-01-23 18:52:00,14.3,-0.9,29.79,NE,39,5.0,12.0,50,0.00,,,0.00,0000,Weather View 32 v70,2013-01-23 23:52:00,
2013-01-23 18:57:00,14.3,-0.9,29.79,NE,45,9.0,12.0,50,0.00,,,0.00,0000,Weather View 32 v70,2013-01-23 23:57:00,
2013-01-23 19:02:00,14.4,2.3,29.80,NE,39,3.0,12.0,58,0.00,,,0.00,0000,Weather View 32 v70,2013-01-24 00:02:00,
2013-01-23 19:07:00,14.1,-1.1,29.79,NE,39,4.0,12.0,50,0.00,,,0.00,0000,Weather View 32 v70,2013-01-24 00:07:00,
2013-01-23 19:12:00,14.4,0.4,29.79,NE,39,7.0,12.0,53,0.00,,,0.00,0000,Weather View 32 v70,2013-01-24 00:12:00,
2013-01-23 19:17:00,14.4,-0.8,29.79,NE,39,5.0,12.0,50,0.00,,,0.00,0000,Weather View 32 v70,2013-01-24 00:17:00,
2013-01-23 19:22:00,14.2,1.8,29.79,NE,34,4.0,12.0,57,0.00,,,0.00,0000,Weather View 32 v70,2013-01-24 00:22:00,
2013-01-23 19:27:00,14.1,-0.7,29.79,NE,39,3.0,12.0,51,0.00,,,0.00,0000,Weather View 32 v70,2013-01-24 00:27:00,
2013-01-23 19:32:00,14.1,-1.1,29.79,NE,39,10.0,12.0,50,0.00,,,0.00,0000,Weather View 32 v70,2013-01-24 00:32:00,
2013-01-23 19:37:00,14.2,-0.6,29.79,NE,39,7.0,12.0,51,0.00,,,0.00,0000,Weather View 32 v70,2013-01-24 00:37:00,
2013-01-23 19:42:00,14.0,-0.8,29.79,NE,39,6.0,11.0,51,0.00,,,0.00,0000,Weather View 32 v70,2013-01-24 00:42:00,
2013-01-23 19:47:00,14.3,4.7,29.79,NE,34,2.0,10.0,65,0.00,,,0.00,0000,Weather View 32 v70,2013-01-24 00:47:00,
2013-01-23 19:52:00,13.8,-0.6,29.79,NE,34,4.0,10.0,52,0.00,,,0.00,0000,Weather View 32 v70,2013-01-24 00:52:00,
2013-01-23 19:57:00,13.8,-0.6,29.79,NE,34,4.0,10.0,52,0.00,,,0.00,0000,Weather View 32 v70,2013-01-24 00:57:00,
2013-01-23 20:02:00,13.8,-0.6,29.79,NE,39,4.0,10.0,52,0.00,,,0.00,0000,Weather View 32 v70,2013-01-24 01:02:00,
2013-01-23 20:07:00,13.5,-0.8,29.79,NE,39,5.0,10.0,52,0.00,,,0.00,0000,Weather View 32 v70,2013-01-24 01:07:00,
2013-01-23 20:12:00,13.4,-0.9,29.79,NE,34,4.0,10.0,52,0.00,,,0.00,0000,Weather View 32 v70,2013-01-24 01:12:00,
2013-01-23 20:17:00,13.4,-0.5,29.79,NE,34,4.0,10.0,53,0.00,,,0.00,0000,Weather View 32 v70,2013-01-24 01:17:00,
2013-01-23 20:22:00,13.2,-0.3,29.79,NE,39,6.0,10.0,54,0.00,,,0.00,0000,Weather View 32 v70,2013-01-24 01:22:00,
2013-01-23 20:27:00,13.1,-0.5,29.79,NE,34,3.0,10.0,54,0.00,,,0.00,0000,Weather View 32 v70,2013-01-24 01:27:00,
2013-01-23 20:32:00,13.1,-0.5,29.79,NE,39,5.0,10.0,54,0.00,,,0.00,0000,Weather View 32 v70,2013-01-24 01:32:00,
2013-01-23 20:37:00,12.9,-0.3,29.79,NE,34,6.0,9.0,55,0.00,,,0.00,0000,Weather View 32 v70,2013-01-24 01:37:00,
2013-01-23 20:42:00,12.7,-0.4,29.78,NE,39,4.0,9.0,55,0.00,,,0.00,0000,Weather View 32 v70,2013-01-24 01:42:00,
2013-01-23 20:47:00,12.9,-0.7,29.78,NE,34,5.0,9.0,54,0.00,,,0.00,0000,Weather View 32 v70,2013-01-24 01:47:00,
2013-01-23 20:52:00,12.6,-0.5,29.78,NE,34,7.0,9.0,55,0.00,,,0.00,0000,Weather View 32 v70,2013-01-24 01:52:00,
2013-01-23 20:57:00,12.7,-0.8,29.79,NE,39,5.0,9.0,54,0.00,,,0.00,0000,Weather View 32 v70,2013-01-24 01:57:00,
2013-01-23 21:02:00,12.6,-0.5,29.78,NE,34,6.0,9.0,55,0.00,,,0.00,0000,Weather View 32 v70,2013-01-24 02:02:00,
2013-01-23 21:07:00,12.6,-0.9,29.79,NE,39,6.0,9.0,54,0.00,,,0.00,0000,Weather View 32 v70,2013-01-24 02:07:00,
2013-01-23 21:12:00,12.7,-0.4,29.79,NE,34,3.0,9.0,55,0.00,,,0.00,0000,Weather View 32 v70,2013-01-24 02:12:00,
2013-01-23 21:17:00,12.7,-0.4,29.78,NE,34,4.0,9.0,55,0.00,,,0.00,0000,Weather View 32 v70,2013-01-24 02:17:00,
2013-01-23 21:22:00,12.7,-0.4,29.79,NE,34,7.0,9.0,55,0.00,,,0.00,0000,Weather View 32 v70,2013-01-24 02:22:00,
2013-01-23 21:27:00,12.6,-0.1,29.79,NE,34,5.0,9.0,56,0.00,,,0.00,0000,Weather View 32 v70,2013-01-24 02:27:00,
2013-01-23 21:32:00,12.5,-0.2,29.79,NE,39,6.0,9.0,56,0.00,,,0.00,0000,Weather View 32 v70,2013-01-24 02:32:00,
2013-01-23 21:37:00,12.6,0.3,29.79,NE,34,7.0,9.0,57,0.00,,,0.00,0000,Weather View 32 v70,2013-01-24 02:37:00,
2013-01-23 21:42:00,12.4,-0.3,29.79,NE,34,5.0,9.0,56,0.00,,,0.00,0000,Weather View 32 v70,2013-01-24 02:42:00,
2013-01-23 21:47:00,12.4,0.4,29.79,NE,39,5.0,9.0,58,0.00,,,0.00,0000,Weather View 32 v70,2013-01-24 02:47:00,
2013-01-23 21:52:00,12.5,-0.2,29.79,NE,34,6.0,9.0,56,0.00,,,0.00,0000,Weather View 32 v70,2013-01-24 02:52:00,
2013-01-23 21:57:00,12.6,-0.1,29.78,NE,34,4.0,10.0,56,0.00,,,0.00,0000,Weather View 32 v70,2013-01-24 02:57:00,
2013-01-23 22:02:00,12.5,-0.2,29.79,NE,34,5.0,10.0,56,0.00,,,0.00,0000,Weather View 32 v70,2013-01-24 03:02:00,
2013-01-23 22:07:00,12.0,-0.4,29.79,NE,34,5.0,10.0,57,0.00,,,0.00,0000,Weather View 32 v70,2013-01-24 03:07:00,
2013-01-23 22:12:00,12.0,-0.4,29.79,NE,34,5.0,10.0,57,0.00,,,0.00,0000,Weather View 32 v70,2013-01-24 03:12:00,
2013-01-23 22:17:00,12.0,-0.4,29.79,NE,34,8.0,10.0,57,0.00,,,0.00,0000,Weather View 32 v70,2013-01-24 03:17:00,
2013-01-23 22:22:00,12.1,-0.6,29.79,NE,34,8.0,10.0,56,0.00,,,0.00,0000,Weather View 32 v70,2013-01-24 03:22:00,
2013-01-23 22:27:00,12.2,-0.5,29.79,NE,34,5.0,10.0,56,0.00,,,0.00,0000,Weather View 32 v70,2013-01-24 03:27:00,
2013-01-23 22:32:00,12.1,-0.6,29.79,NE,34,5.0,10.0,56,0.00,,,0.00,0000,Weather View 32 v70,2013-01-24 03:32:00,
2013-01-23 22:37:00,12.1,-0.6,29.79,NE,34,5.0,10.0,56,0.00,,,0.00,0000,Weather View 32 v70,2013-01-24 03:37:00,
2013-01-23 22:42:00,12.1,-0.6,29.79,NE,34,7.0,10.0,56,0.00,,,0.00,0000,Weather View 32 v70,2013-01-24 03:42:00,
2013-01-23 22:47:00,12.1,-0.6,29.79,NE,34,7.0,10.0,56,0.00,,,0.00,0000,Weather View 32 v70,2013-01-24 03:47:00,
2013-01-23 22:52:00,12.0,-0.7,29.79,NE,34,7.0,10.0,56,0.00,,,0.00,0000,Weather View 32 v70,2013-01-24 03:52:00,
2013-01-23 22:57:00,11.8,-0.5,29.79,NE,34,5.0,10.0,57,0.00,,,0.00,0000,Weather View 32 v70,2013-01-24 03:57:00,
2013-01-23 23:02:00,11.8,-0.5,29.79,NE,34,8.0,10.0,57,0.00,,,0.00,0000,Weather View 32 v70,2013-01-24 04:02:00,
2013-01-23 23:07:00,11.8,-0.1,29.79,NE,34,7.0,10.0,58,0.00,,,0.00,0000,Weather View 32 v70,2013-01-24 04:07:00,
2013-01-23 23:12:00,11.8,-0.1,29.79,NE,34,7.0,10.0,58,0.00,,,0.00,0000,Weather View 32 v70,2013-01-24 04:12:00,
2013-01-23 23:17:00,12.0,0.0,29.79,NE,34,7.0,10.0,58,0.00,,,0.00,0000,Weather View 32 v70,2013-01-24 04:17:00,
2013-01-23 23:22:00,11.8,0.3,29.79,NE,34,9.0,10.0,59,0.00,,,0.00,0000,Weather View 32 v70,2013-01-24 04:22:00,
2013-01-23 23:27:00,11.8,-0.1,29.79,NE,34,6.0,10.0,58,0.00,,,0.00,0000,Weather View 32 v70,2013-01-24 04:27:00,
2013-01-23 23:32:00,11.7,0.2,29.78,NNE,28,7.0,10.0,59,0.00,,,0.00,0000,Weather View 32 v70,2013-01-24 04:32:00,
2013-01-23 23:37:00,11.8,0.6,29.78,NNE,28,7.0,10.0,60,0.00,,,0.00,0000,Weather View 32 v70,2013-01-24 04:37:00,
2013-01-23 23:42:00,12.0,0.7,29.79,NNE,28,6.0,10.0,60,0.00,,,0.00,0000,Weather View 32 v70,2013-01-24 04:42:00,
2013-01-23 23:47:00,12.0,0.4,29.78,NE,34,7.0,10.0,59,0.00,,,0.00,0000,Weather View 32 v70,2013-01-24 04:47:00,
2013-01-23 23:52:00,12.0,0.4,29.78,NNE,28,9.0,10.0,59,0.00,,,0.00,0000,Weather View 32 v70,2013-01-24 04:52:00,
2013-01-23 23:57:00,12.1,0.8,29.78,NNE,28,8.0,10.0,60,0.00,,,0.00,0000,Weather View 32 v70,2013-01-24 04:57:00,